Regional Weather Roundup
Issued by NWS

Home | Current Version | Previous Version | Text Only | Print | Product List | Glossary Off
Versions: 1 2 3 4 5 6 7 8 9 10 11 12 13 14 15 16 17 18 19 20 21 22 23 24 25 26 27 28 29 30 31 32 33 34 35 36 37 38 39 40 41 42 43 44 45 46 47 48 49 50

898
ASUS45 KTFX 091810
RWRMT
MONTANA REGIONAL WEATHER ROUNDUP
NATIONAL WEATHER SERVICE GREAT FALLS MT
1100 AM MST FRI DEC 09 2016

NOTE: "FAIR" INDICATES FEW OR NO CLOUDS BELOW 12000 FEET WITH NO
SIGNIFICANT WEATHER AND/OR OBSTRUCTIONS TO VISIBILITY.

MTZ001>007-043-091900-
WEST OF THE DIVIDE

CITY           SKY/WX    TMP DP  RH WIND       PRES   REMARKS
KALISPELL      CLOUDY     6  -2  69 N12       30.23F WCI  -9
MISSOULA       CLOUDY    14   6  70 SE3       30.20R
BUTTE          CLOUDY     6   0  76 CALM      30.04S
MULLAN PASS    FOG       10   7  87 S7        29.92S VSB 1/2 WCI  -1
ANACONDA         N/A      7   0  72 W3        30.07S
DEER LODGE       N/A      7  -2  66 CALM      30.13R
EUREKA           N/A      1  -2  85 CALM      30.30F
HAMILTON         N/A     12   9  85 CALM      30.14F
LIBBY            N/A     10   3  72 CALM      30.25S
PLAINS           N/A     15   4  61 CALM      30.24R
RONAN            N/A     12   6  77 N5        30.20F
$$

MTZ008-052>055-091900-
SOUTHWEST MONTANA

CITY           SKY/WX    TMP DP  RH WIND       PRES   REMARKS
BOZEMAN        CLOUDY     4  -2  76 W3        30.17R
DILLON         CLOUDY     7   0  73 N3        30.08S
W YELLOWSTONE  LGT SNOW  19  18  93 CALM      30.08F
ENNIS          CLOUDY     9   5  85 NW5       30.09S
THREE FORKS      N/A      5 -45   8 CALM      30.15S
TWIN BRIDGES     N/A      7  -4  60 CALM      30.08F
$$

MTZ009-010-012-014-046-048-049-054-091900-
EAST SLOPES AND CENTRAL MONTANA

CITY           SKY/WX    TMP DP  RH WIND       PRES   REMARKS
CUT BANK       CLOUDY    -3  -8  79 SE7       30.24F WCI -16
GREAT FALLS    LGT SNOW   0  -6  76 VRB3      30.27F
MALMSTROM AFB  LGT SNOW  -1  -5  80 NE1       30.30F
HELENA         CLOUDY     5  -6  60 NW5       30.24S
AUGUSTA        FLURRIES  -4  -8  82 S5        30.18F
BOWMANS CRNR   FLURRIES  -5  -8  86 NE5       30.17F
CHOTEAU          N/A      0  -8  71 MISG      30.26S HAZE
CONRAD           N/A     -1  -6  79 N5        30.26S
FAIRFIELD      FLURRIES  -3  -9  75 E3        30.24F
POWER          LGT SNOW  -3  -8  78 SE3       30.25F
RAYNESFORD     LGT SNOW  -2  -8  75 NW1       30.23F
ULM            FLURRIES  -1  -7  74 N6        30.28F WCI -13
$$

MTZ011-013-016-021-045-047-050-051-091900-
NORTH CENTRAL MONTANA

CITY           SKY/WX    TMP DP  RH WIND       PRES   REMARKS
HAVRE          CLOUDY     4  -3  73 E7        30.41F WCI  -8
LEWISTOWN      FLURRIES   1  -6  72 E7        30.21F WCI -12
N BAR RANCH    LGT SNOW   0  -6  78 E7        30.21F WCI -13
CHINOOK          N/A      3  -2  78 E10       30.45F WCI -12
DENTON         LGT SNOW   1  -4  82 NE10G20   30.25F WCI -16
GEYSER         LGT SNOW  -2  -7  78 E3        30.22F
GRASS RANGE    LGT SNOW   0  -4  83 NE6       30.24F WCI -12
JUDITH GAP     LGT SNOW   1  -4  80 S16       30.16F WCI -19
ROY            FLURRIES  -1  -4  87 MISG      30.28F
STANFORD       LGT SNOW  -3  -6  87 NE3       30.19S
WINIFRED       FLURRIES  -1  -4  87 MISG      30.26F
$$

MTZ017>020-022>027-061-062-091900-
NORTHEAST MONTANA

CITY           SKY/WX    TMP DP  RH WIND       PRES   REMARKS
GLASGOW        SUNNY     -2  -7  79 SE12      30.50F WCI -20
JORDAN           N/A     -2  -7  79 E6        30.45F WCI -14
SIDNEY         SUNNY      1  -9  62 CALM      30.57F
WOLF POINT     CLOUDY    -1  -8  72 E6        30.57S WCI -13
PLENTYWOOD       N/A     -2  -9  71 N7        30.52F WCI -16
POPLAR           N/A     -4  -9  77 SE3       30.57F
SCOBEY           N/A      0 -11  60 CALM      30.43F
$$

MTZ028>42-056>058-091900-
SOUTHCENTRAL AND SOUTHEAST MONTANA

CITY           SKY/WX    TMP DP  RH WIND       PRES   REMARKS
BAKER          CLOUDY    -4  -8  83 E5        30.42S
BILLINGS       FLURRIES   2  -4  76 NE7       30.29S WCI -11
LIVINGSTON     CLOUDY     7   0  73 E3        30.15F
MILES CITY     CLOUDY   N/A N/A N/A MISG      30.44F
BIG TIMBER     MOSUNNY    5   0  78 E6        30.20F WCI  -6
EKALAKA          N/A      3  -6  66 SE7       30.25F WCI  -9
FORSYTH          N/A      0  -6  78 E8        30.42F WCI -15
HARLOWTON      LGT SNOW   1  -3  83 SE3       30.20F
LAUREL           N/A      5  -5  63 N3        30.23S
$$

REGIONAL REPORTS...DAKOTAS

CITY           SKY/WX    TMP DP  RH WIND       PRES   REMARKS
WILLISTON      CLOUDY    -6 -11  79 NE6       30.58F WCI -19
MINOT          SUNNY     -9 -15  75 W12       30.56F WCI -28
BEACH            N/A     -6  -9  84 CALM      30.48F
CROSBY           N/A     -9 -15  77 NW7       30.59F WCI -24
TIOGA            N/A     -8 -11  84 NW10      30.53F WCI -26
WATFORD CITY     N/A    -11 -17  77 SW3       30.56F
BISMARCK       CLOUDY     0  -7  72 NW9       30.58S WCI -15
GRAND FORKS    CLOUDY     2  -5  72 NW12      30.59F WCI -15
FARGO          MOSUNNY    5  -4  66 NW10      30.58F WCI -10
BUFFALO SD       N/A      2  -4  76 E3        30.31F
RAPID CITY     FLURRIES   1  -4  79 N10       30.35S WCI -15
$$

REGIONAL REPORTS...WYOMING/IDAHO/WASHINGTON

CITY           SKY/WX    TMP DP  RH WIND       PRES   REMARKS
GILLETTE       CLOUDY     3  -2  79 N3        30.21F
SHERIDAN       CLOUDY    10   0  63 CALM      30.24F
BUFFALO WY     CLOUDY     8   1  73 CALM      30.16F
CODY           CLOUDY     6  -2  69 S3        30.14F
YELLOWSTONE LA   N/A     22  19  89 VRB6      30.05F WCI  14
IDAHO FALLS    LGT SNOW  21  17  84 N7        30.16F FOG     WCI  12
SALMON         CLOUDY    16  10  79 CALM      30.16S
BOISE          CLOUDY    29  25  85 N3        30.14F
SPOKANE        FLURRIES  18  13  80 NE12      30.11F WCI   5
$$

REGIONAL REPORTS...ALBERTA

CITY           SKY/WX    TMP DP  RH WIND       PRES   REMARKS
EDMONTON       SUNNY     -6 -13  71 SE3       30.45F
CALGARY        CRYSTALS  -6 -13  71 S9        30.25F WCI -22
LETHBRIDGE     FLURRIES  -4  -9  77 E5        30.34F
MEDICINE HAT   CLOUDY    -2  -8  78 E7        30.46F WCI -16
WATERTON GATE    N/A     -9 -17  70 NE1         N/A
CARDSTON         N/A     -8 -17  65 SE1         N/A
MILK RIVER       N/A      0  -9  65 S3          N/A
ONEFOUR          N/A     -2  -6  84 E9          N/A  WCI -18
$$

REGIONAL REPORTS...SASKATCHEWAN

CITY           SKY/WX    TMP DP  RH WIND       PRES   REMARKS
SWIFT CURRENT  MOSUNNY   -8 -11  84 VRB2      30.44S
REGINA         MOSUNNY   -9 -15  77 NW7       30.57F FOG     WCI -24
SASKATOON      CRYSTALS  -9 -15  77 NW3       30.62F
CYPRESS HILLS    N/A     -9 -15  77 S5          N/A
VAL MARIE        N/A      0  -6  78 E6          N/A  WCI -12
ROCKGLEN         N/A     -2  -9  71 W1          N/A
ASSINIBOIA       N/A     -4 -11  71 S7          N/A  WCI -18
$$




USA.gov is the U.S. government's official web portal to all federal, state and local government web resources and services.